Retour au catalogue

STARLINK-3878

ActifCommunicationsVLEO
NORAD 52479·PAYLOAD·🇺🇸 United States

Lancé May 6, 2022 depuis Cape Canaveral Space Force Station

Loading…

Prochains Passages (prochaines 24 heures)

TLE

FraisSource: CelesTrak SupGP

Époque: Sep 15, 2026, 03:01 UTC

1 52479C 22049AE  26258.12618056 -.00013519  00000+0 -43469-3 0  2583
2 52479  53.1587 274.9033 0001132  84.6657 280.5189 15.31711664    18

Suivez STARLINK-3878 en temps réel avec AllMySat

Download on the App Store